Location: Newark
(39.6172°N, 96.8533°W)
Time: 02:33:36
(UTC+00:00)

Envisat - Pass Details

Date: 04 February 2020
Orbit: 764 x 766 km, 98.1° (Epoch: 25 February)

Event Time Altitude Azimuth Distance (km) Brightness Sun altitude
Rises 01:12:42 0° 197° (SSW) 3,218 6.6 -16.3°
Reaches altitude 10° 01:15:22 10° 210° (SSW) 2,296 6.0 -16.9°
Maximum altitude 01:19:30 25° 266° (W) 1,506 5.4 -17.6°
Drops below altitude 10° 01:23:40 10° 321° (NW) 2,309 5.9 -18.4°
Sets 01:26:23 0° 334° (NNW) 3,240 6.5 -19.0°
